THORAD AGENA D DEB, 4946

Orbit data source: Space-Track

THORAD AGENA D DEB, 4946 is space debris in SSO originally from a launch on Wed, 08 Apr 1970 UTC launched from the Air Force Western Test Range (AFWTR). Debris objects in space refer to the collection of defunct objects orbiting the Earth. Examples of debris include non-operational satellites, rocket bodies, and fragments generated from explosions, collisions, or faulty payload assembly.

Loading next visibility...
Identifier
4946, 1970-025GG
Orbit
SSO
Country
Flag of USUS
Related business
Manufacturer
Unknown
Mission
Spacecraft
Bus & Motor
Unknown
Mass
Unknown
Launch date (UTC)
1970-04-08 (56 years ago)
Launch vehicle
Unknown
Launch site
Air Force Western Test Range (AFWTR)
Object type
Payload
Rocket body
Debris
Shape & HBR
Unknown shape, 0.1 m
Radar Cross Section
Medium (>0.1 m² and <1 m²)

Expand to show TLE details & history
Last TLE update: 2 days ago

TLE from 2 days ago
0 THORAD AGENA D DEB
1 04946U 70025GG  26255.87530203  .00000634  00000-0  61211-3 0  9992
2 04946  99.6758  23.6429 0016448 105.0130  23.1782 13.83966749815135
Epoch: 2026-09-12T21:00Z
TLE epoch observation values (Epoch: 2026-09-12T21:00:26.095Z)
Latitude
50.81201°
Longitude
-91.33577°
Altitude
946.834 km
Speed
7.389 km/s
True Right ascension
14h 22m 36s
True Declination
50° 38' 52"
Sunlit
Object was in daylight at epoch
Visualization orbit readout
Latitude
Unknown
Longitude
Unknown
Altitude
Unknown
Speed
Unknown
Apparent Right ascension
Unknown
Apparent Declination
Unknown
Sunlit
N/A
Visualization observer readout
Local Sidereal Time
01:34:37
Azimuth
Unknown
Elevation
Unknown
Doppler factor
Unknown
Orbital elements
Apogee altitude
959.154 km
Perigee altitude
935.057 km
Semi-major axis
7,325.243 km
Eccentricity
0.00164
Inclination
99.6758°
RAAN
23.6429°
Arg. of periapsis
105.013°
True anomaly
23.25252°
Mean anomaly
23.1782°
Eccentric anomaly
23.21535°
Mean motion
3.46187 °/min
Orbital period
103.99 mins
BSTAR
0.00061211
Loading maneuver chart data...
Computing Atmospheric mass density...

Documentation

Showing up to 5 results
|